Location: Unspecified
(0.0000°N, 0.0000°E)
Time: 20:12:16
(UTC+00:00)

ARIANE 2 DEB - Visible Passes

Search period start: 12 January 2025 00:00
Search period end: 22 January 2025 00:00
Orbit: 910 x 35590 km, 6.7° (Epoch: 29 August)

Date Brightness Start Highest point End Pass type
(mag) Time Alt. Az. Time Alt. Az. Time Alt. Az.
12 Jan ? 21:02:32 10° W 21:04:56 27° WSW 21:04:56 27° WSW visible
14 Jan ? 05:36:47 10° W 07:26:19 71° W 15:38:55 10° E visible
15 Jan ? 02:53:25 49° WSW 03:08:14 82° S 12:50:44 10° E visible
16 Jan ? 00:15:27 43° ESE 00:15:27 43° ESE 09:53:38 10° E visible
16 Jan ? 21:11:42 10° W 21:13:30 23° WSW 21:13:30 23° WSW visible
19 Jan ? 03:02:36 46° WSW 03:21:43 84° S 13:00:02 10° E visible
20 Jan ? 00:24:38 48° ESE 00:24:38 48° ESE 10:04:43 10° E visible
20 Jan ? 21:20:43 10° WSW 21:22:01 19° WSW 21:22:01 19° WSW visible
21 Jan ? 04:19:19 10° E 05:27:52 13° E 06:16:49 10° E visible
21 Jan ? 18:26:19 10° W 18:37:51 75° S 18:42:42 10° ESE visible
